AO-7 - Orbit

View from above orbital plane
View from above orbital plane
View from above satellite
View from above satellite

Ground track
Ground track

The orbit data is extracted from the following two-line orbital elements,

1 07530U 74089B   13141.04772832 -.00000053  00000-0 -64908-4 0  6859
2 07530 101.4294 131.5418 0011664 343.6924 046.7596 12.53596348762389
Epoch (UTC): 21 May 2013 01:08:43
Eccentricity: 0.0011664
inclination: 101.4294°
perigee height: 1440 km
apogee height: 1458 km
right ascension of ascending node: 131.5418°
argument of perigee: 343.6924°
revolutions per day: 12.53596348
mean anomaly at epoch: 46.7596°
orbit number at epoch: 76238

The dashed part of the orbit path shows where the satellite is in the earth's shadow,  

Developed and maintained by Chris Peat, Heavens-Above GmbH. Please read the updated FAQ before sending e-mail. Imprint. DLR